GFSSGP_925_spd_093.txt.gz
Wind_Speed
8 8 8 4 3 4 5 6 3 7 8 1 4 6 8 1 4 5 11 20 28 40 37 35 34 33 32 31 30 28 28 28 28 28 29 29 28 28 26 24 22 20 18 17 18 18 18 18 18
3 4 2 2 4 2 5 3 7 4 7 9 11 4 3 2 3 4 11 11 28 41 38 38 35 33 32 31 30 29 29 29 28 27 27 28 28 27 25 23 21 19 18 18 19 19 18 18 17
1 1 3 4 4 8 2 3 7 15 14 3 7 4 6 5 3 7 6 21 33 34 34 36 35 33 31 31 30 29 29 28 26 26 26 26 26 26 24 22 20 18 18 19 19 19 18 17 16
3 4 4 3 11 2 1 11 9 17 13 7 5 5 4 9 5 7 19 22 39 33 32 33 33 32 31 30 29 28 28 26 24 24 25 26 25 24 22 20 19 18 17 18 19 18 17 16 15
3 3 1 3 6 1 5 5 7 13 15 17 7 4 7 7 7 16 24 29 34 32 31 31 31 30 29 29 28 27 26 24 23 23 24 25 24 23 21 19 17 16 16 17 18 17 16 15 13
3 3 2 7 7 1 5 5 6 7 15 17 3 3 5 4 7 17 25 32 31 32 29 28 28 28 28 28 27 27 26 23 22 22 22 23 22 21 19 17 16 15 15 16 17 17 15 14 13
5 4 4 2 3 3 4 4 2 7 9 11 1 3 5 2 8 16 20 28 28 29 31 28 26 25 25 26 26 25 25 23 21 20 21 20 20 19 17 16 15 15 15 16 17 16 15 14 13
5 4 2 4 6 6 5 4 3 4 13 17 3 3 4 3 14 13 13 16 21 22 23 26 27 26 25 25 24 23 23 22 21 19 19 19 19 18 17 15 14 14 15 16 17 17 15 14 12
4 3 3 6 7 5 7 8 1 4 12 6 12 5 4 7 18 19 18 16 16 17 20 23 24 23 24 24 24 23 22 21 20 19 18 18 18 18 18 17 16 16 16 16 16 17 16 15 13
4 4 10 8 7 5 7 9 4 5 9 8 3 14 4 9 17 18 15 14 19 21 25 24 21 22 22 23 23 23 22 21 21 21 20 19 19 19 19 17 17 16 16 17 17 17 16 16 16
6 7 5 7 8 9 13 14 5 10 13 16 10 17 7 7 10 9 16 25 30 29 28 30 30 25 25 24 22 21 21 21 21 21 22 22 21 20 21 20 19 19 19 20 20 19 20 20 18
3 9 6 13 7 5 9 5 10 10 11 13 15 21 5 2 7 7 12 19 22 23 27 32 34 32 30 25 26 25 22 22 23 24 24 25 25 25 25 25 24 24 24 24 23 24 23 23 22
4 5 7 11 9 9 8 11 12 11 17 12 9 15 13 12 9 8 14 22 29 30 29 32 32 35 38 36 33 32 30 28 26 26 28 30 31 31 29 29 28 28 28 29 29 28 28 27 25
5 9 18 13 13 7 7 13 7 12 17 10 3 7 18 17 21 11 17 22 28 32 36 36 36 36 36 38 38 40 36 33 28 30 31 33 37 36 35 34 34 33 33 32 32 32 31 31 29
7 6 8 11 12 9 8 8 9 19 5 9 8 8 8 9 23 13 23 27 32 32 37 38 39 40 38 37 40 39 37 34 36 31 36 37 37 41 40 39 38 37 36 35 36 36 34 34 32
3 0 4 7 1 6 11 9 9 11 9 12 9 8 8 8 9 13 11 17 24 31 35 36 41 41 40 40 41 37 37 32 28 30 32 36 34 42 40 37 42 39 36 35 36 37 37 36 35
3 4 4 7 5 1 5 7 9 9 7 10 9 9 9 9 5 12 18 17 16 15 25 33 38 39 40 32 37 33 31 29 26 24 24 28 34 40 41 38 39 38 39 37 36 38 36 33 35
4 3 4 5 5 3 8 10 15 9 9 11 8 9 8 9 11 19 9 10 5 12 19 29 33 33 34 28 24 27 25 30 32 30 23 17 25 33 36 37 33 36 37 35 38 37 37 35 30
5 4 5 10 15 1 8 9 12 5 6 7 7 7 7 8 3 12 7 6 6 4 8 12 20 27 25 33 33 32 32 35 29 28 29 33 29 30 31 36 33 31 34 36 37 39 34 33 31
6 7 12 9 12 5 8 8 7 4 3 4 7 8 9 3 6 6 13 12 12 12 11 11 13 16 20 24 26 22 20 27 33 31 32 35 34 30 35 35 36 35 35 31 33 35 28 28 27
10 5 8 10 3 2 3 7 7 4 6 7 6 7 5 9 10 7 8 13 22 18 15 14 11 8 6 11 14 18 19 24 25 27 32 30 33 32 33 32 34 26 30 34 30 31 33 30 26
11 13 12 6 3 2 2 4 5 5 8 4 4 5 7 7 7 9 8 9 19 22 24 23 18 17 14 11 11 11 7 3 1 7 11 15 17 22 27 26 30 33 29 32 34 38 34 32 27
9 4 8 3 3 3 2 3 7 4 4 5 5 7 7 8 9 7 7 13 14 14 14 15 13 12 9 6 4 3 3 1 4 7 10 11 11 11 14 17 22 29 31 41 37 36 36 37 33
2 3 7 4 3 2 4 3 5 3 3 1 1 3 6 6 7 6 7 6 8 7 5 5 5 6 5 1 2 5 9 10 11 14 15 17 18 18 16 16 17 20 27 35 37 43 39 38 35
5 5 2 3 3 4 4 2 6 5 3 5 6 4 1 6 8 8 9 11 15 18 16 16 16 15 12 11 8 8 11 13 17 22 26 26 25 23 23 19 19 19 21 25 31 37 35 37 37
1 6 5 5 3 2 3 3 4 2 4 8 11 8 11 13 9 9 8 14 20 22 21 21 21 20 20 19 17 19 19 20 22 24 26 28 29 29 25 23 21 20 19 22 26 32 34 33 35
2 2 3 5 3 3 4 2 5 3 5 13 10 10 8 8 7 8 8 13 18 20 20 21 22 22 23 23 23 22 20 21 22 25 27 29 29 28 27 25 23 24 23 22 22 27 33 34 38
4 6 3 3 3 3 3 4 5 2 8 7 8 8 7 6 7 7 6 13 18 18 20 21 21 21 25 26 25 24 25 24 25 25 26 25 27 28 28 28 26 25 25 25 25 27 29 33 34
1 3 5 5 2 4 2 3 2 5 7 8 6 5 6 7 8 7 8 17 21 25 27 27 27 27 26 24 23 23 25 29 30 28 26 25 24 23 22 26 27 24 22 22 24 26 29 32 33
2 3 4 4 4 3 3 3 1 7 7 5 6 4 5 6 7 7 8 16 19 21 22 23 24 24 25 26 29 30 31 30 30 31 33 33 31 29 25 23 26 23 23 23 24 25 29 32 34

GFSSGP_925_spd_096.txt.gz
Wind_Speed
4 3 4 5 4 4 3 6 2 6 8 5 7 4 6 2 4 4 7 13 20 34 34 33 33 33 31 31 31 32 31 31 30 30 28 27 27 26 25 23 21 19 17 15 16 17 17 17 18
2 3 4 2 4 1 5 3 3 3 5 11 8 5 1 2 0 4 5 9 25 35 35 33 32 31 30 28 29 29 29 29 29 29 29 27 26 26 25 22 20 18 17 17 18 18 18 18 17
4 4 4 4 4 7 4 3 4 6 8 6 8 4 3 6 1 3 3 18 26 34 33 32 30 30 29 27 27 28 28 28 28 27 26 26 26 25 23 22 20 18 17 18 18 17 17 17 17
3 5 4 4 7 6 5 3 5 11 4 7 6 7 4 3 6 3 16 17 31 32 33 31 30 29 30 29 27 26 26 25 25 26 25 25 25 24 23 21 19 17 18 19 18 18 18 18 16
5 3 4 2 5 5 6 6 7 10 7 9 11 6 6 3 7 9 16 18 32 28 28 28 29 28 29 28 27 26 25 24 23 24 24 24 24 23 21 19 17 16 17 19 19 18 17 17 15
4 3 4 4 4 4 7 4 3 5 7 6 9 9 5 3 8 10 12 18 26 28 28 26 27 26 27 27 27 26 25 23 22 22 23 23 22 20 19 17 16 15 16 18 18 18 17 15 14
6 4 5 4 4 3 5 1 3 6 8 8 5 5 3 4 10 12 13 18 19 21 22 20 23 26 26 26 25 26 24 22 21 21 22 23 22 20 17 15 13 14 15 17 18 17 16 15 14
5 4 5 5 5 7 6 3 3 3 7 5 2 4 5 1 14 13 14 18 18 16 17 19 19 22 26 26 26 25 24 22 20 20 20 20 20 19 17 15 13 13 13 14 16 17 16 15 14
4 5 3 6 6 6 4 4 2 4 8 4 3 4 2 13 17 16 15 15 15 16 21 23 24 22 24 25 24 24 23 22 21 19 19 19 19 18 17 16 15 14 14 14 15 17 17 16 16
5 5 10 8 7 5 4 7 6 4 7 4 10 5 9 15 13 11 10 15 18 18 18 21 26 27 26 25 24 23 23 22 22 21 20 19 19 19 18 17 16 15 15 16 17 17 18 18 18
5 6 6 6 8 6 8 4 4 5 10 8 7 10 6 9 9 6 8 6 14 20 20 22 26 28 29 28 27 26 25 24 23 22 22 22 21 21 20 19 19 19 18 19 19 19 20 20 20
3 7 6 3 8 6 6 4 5 8 12 15 9 11 4 7 10 11 12 17 16 20 28 28 30 30 30 30 31 31 31 30 30 29 27 26 24 23 23 22 22 22 23 23 23 23 23 23 23
4 6 6 10 8 8 3 10 7 9 14 18 10 12 9 7 4 10 15 15 18 23 25 31 35 35 36 35 35 36 35 34 34 34 33 31 30 29 27 27 25 25 25 26 25 25 26 26 25
7 7 7 5 7 6 6 6 7 13 13 12 8 12 9 17 15 11 11 15 21 26 29 31 35 37 38 39 40 40 37 38 35 35 35 35 35 35 34 32 29 30 29 28 28 27 28 29 27
4 5 7 4 1 4 9 8 11 22 12 10 8 5 8 8 17 19 20 14 18 26 29 35 38 38 39 41 40 38 41 36 38 36 34 34 34 35 35 38 34 32 32 30 29 29 29 30 29
3 4 4 6 2 2 7 8 9 14 8 12 11 8 6 7 9 16 13 13 23 25 31 37 37 37 39 40 39 36 33 30 28 29 28 29 30 33 33 37 37 33 34 33 32 31 30 33 31
7 2 3 8 2 2 3 7 9 7 7 10 9 9 7 9 5 12 21 25 35 32 32 32 36 38 36 25 25 27 26 30 27 25 25 23 27 29 32 34 31 32 33 34 34 33 31 32 32
2 2 3 5 4 1 6 11 11 6 9 11 9 7 7 8 7 6 13 29 30 21 22 25 28 31 28 26 21 26 28 28 28 27 24 23 22 23 25 26 32 28 29 29 32 34 34 34 35
2 2 5 9 8 3 6 5 11 10 7 8 9 7 7 3 4 9 9 10 13 13 15 18 20 26 32 30 29 26 29 28 28 28 28 23 24 24 20 23 26 18 24 27 28 31 28 30 33
5 5 8 9 5 6 6 8 6 3 1 3 4 6 5 6 5 5 11 13 16 18 19 18 16 18 22 26 27 22 12 19 26 28 28 26 24 23 20 20 12 8 39 21 24 23 24 24 21
6 5 7 9 6 2 4 6 5 3 5 7 6 4 6 3 5 5 7 4 9 8 5 5 6 8 10 15 18 18 19 20 23 25 29 27 22 23 24 24 27 23 37 36 34 28 24 23 21
6 11 11 6 3 4 0 4 6 4 4 7 7 8 7 6 7 8 6 13 18 17 17 17 16 14 9 5 7 9 10 10 7 6 7 9 10 12 15 19 23 26 31 35 41 34 36 29 22
9 3 7 4 4 2 2 4 6 5 6 7 7 7 8 10 9 8 8 15 18 18 18 13 13 13 11 8 6 5 2 4 7 9 11 11 10 9 10 12 14 21 27 28 31 34 33 33 31
1 2 7 5 3 1 3 4 5 2 1 4 2 7 8 9 10 10 16 21 24 23 20 19 16 16 12 11 10 9 10 12 13 16 18 20 20 18 17 16 18 19 21 24 26 28 31 31 30
3 5 2 2 2 5 2 2 7 5 3 6 6 7 8 10 10 10 12 15 23 25 23 21 20 19 18 17 17 16 16 15 15 19 23 25 27 27 26 24 23 23 23 22 23 24 26 28 27
2 5 5 5 4 3 1 4 5 6 11 11 10 8 9 9 7 8 8 14 19 21 23 23 23 22 21 21 21 20 20 21 23 23 25 27 28 31 31 29 27 27 24 23 22 21 24 24 27
1 3 2 6 3 3 3 3 3 7 8 8 8 8 8 7 7 8 9 14 18 21 22 22 22 22 22 22 23 24 25 26 28 29 29 29 29 29 28 29 30 29 28 26 23 23 25 25 27
4 5 2 3 4 4 4 3 4 4 6 5 6 6 5 5 6 6 6 12 19 22 24 25 25 27 28 28 27 26 31 31 31 31 33 34 35 31 28 27 28 30 31 29 27 27 27 26 28
2 3 4 4 3 5 2 5 3 6 7 7 5 4 5 5 5 5 7 15 19 21 22 22 23 24 25 26 26 26 28 29 29 29 30 30 32 34 35 33 31 28 30 31 30 28 27 26 27
3 5 5 4 5 2 3 5 4 5 5 5 3 3 3 2 2 4 7 13 14 16 17 16 18 19 19 23 25 27 27 27 27 28 30 32 32 29 28 29 31 32 29 31 32 30 29 28 27

GFSSGP_925_spd_102.txt.gz
Wind_Speed
6 6 6 7 7 7 14 8 3 6 5 4 7 6 10 11 6 6 6 3 9 21 21 25 25 24 21 21 24 26 27 25 24 25 24 22 22 22 22 22 18 16 14 13 13 12 13 14 15
4 5 8 3 8 13 12 12 11 3 2 4 6 8 7 3 7 4 2 3 14 21 19 21 25 24 22 22 25 28 27 26 25 24 23 22 22 21 21 20 17 14 13 12 12 13 13 14 14
5 8 7 6 12 16 14 8 13 5 2 4 5 4 5 6 9 7 4 10 18 19 20 20 27 24 22 22 26 30 29 26 25 24 22 21 21 20 20 18 16 13 12 12 13 14 15 15 14
9 7 4 10 17 16 16 6 5 6 4 2 7 5 3 3 8 8 5 13 19 18 18 21 29 26 23 22 27 28 29 26 25 23 21 20 20 19 18 17 15 12 12 13 14 14 15 14 12
10 4 10 14 21 19 5 10 10 9 9 8 7 7 10 5 5 2 7 13 17 18 17 19 28 28 25 26 26 27 26 25 24 22 20 19 19 19 18 16 14 12 12 13 13 14 14 13 12
7 6 8 16 20 14 10 13 14 13 14 13 11 10 3 4 3 2 7 11 16 18 17 18 25 27 26 25 25 25 25 24 23 21 19 18 18 18 18 16 15 13 13 13 13 14 13 13 12
14 10 14 16 12 12 9 7 12 13 10 11 7 11 3 4 4 3 7 11 15 18 18 18 18 23 25 24 24 24 23 22 21 20 19 18 18 17 17 16 14 13 13 13 13 13 13 13 13
8 8 16 13 13 16 4 8 4 8 9 5 7 7 6 6 2 3 8 11 16 18 17 18 18 18 19 19 22 22 22 22 21 19 18 18 19 17 15 14 13 12 12 14 14 14 14 14 14
6 8 13 17 11 11 4 7 4 2 7 6 9 8 6 5 2 3 8 12 15 17 17 17 18 18 19 18 18 21 21 20 19 18 19 18 15 16 16 15 15 13 12 13 14 15 15 15 15
12 11 14 8 7 8 4 6 6 5 9 11 10 14 14 5 7 6 8 13 16 16 16 16 17 18 18 18 17 19 18 18 18 17 18 17 17 16 16 15 17 14 14 13 14 15 16 17 13
13 14 11 8 9 7 10 8 5 10 12 12 14 13 10 6 7 10 13 11 13 14 14 15 16 17 18 18 18 21 21 20 19 18 17 17 16 15 17 15 15 14 14 12 14 14 15 15 15
10 16 10 8 4 8 9 6 8 9 12 11 13 14 10 11 10 12 12 12 13 14 14 15 16 17 18 18 19 18 19 19 18 19 19 17 16 16 15 16 15 16 15 15 14 13 15 14 15
17 12 10 11 9 9 8 11 10 12 11 13 11 11 13 12 12 13 13 9 11 12 12 14 15 16 16 17 16 17 17 17 16 16 18 18 17 16 16 15 15 15 15 15 15 15 14 14 15
8 15 11 9 11 8 10 9 4 12 14 12 12 13 13 12 12 12 14 13 9 6 7 10 11 14 15 16 15 15 12 12 15 16 16 18 17 16 15 15 14 15 14 14 14 14 14 14 15
8 12 15 15 14 9 10 12 11 10 5 8 10 12 10 10 13 15 19 17 11 6 5 8 9 11 14 15 16 17 17 17 16 16 17 17 20 16 15 15 15 15 14 14 13 13 14 13 14
12 13 14 16 11 8 11 5 7 3 8 10 10 11 10 9 15 17 18 16 19 15 11 8 7 7 11 13 16 18 19 18 19 18 18 19 20 18 14 16 16 15 15 16 15 16 16 15 14
11 12 15 12 10 8 12 4 5 7 5 8 9 10 12 12 11 16 17 21 22 20 17 14 11 9 7 9 15 18 20 20 19 18 19 21 20 17 14 17 17 15 17 18 18 18 19 16 16
13 14 10 10 10 10 11 13 10 6 6 9 10 12 11 12 13 13 15 20 21 14 11 10 15 19 3 7 12 15 16 19 21 22 20 18 19 22 12 24 21 19 17 21 18 18 19 18 14
7 8 10 7 4 8 11 7 9 2 6 8 9 12 12 10 3 3 7 13 7 6 6 6 3 7 13 13 14 13 15 17 17 21 21 19 21 20 32 33 22 23 15 22 22 19 20 19 15
13 13 13 11 10 11 10 10 7 4 2 2 4 9 13 8 6 4 5 5 5 3 5 3 2 2 7 14 13 15 13 16 16 17 16 17 18 20 23 25 23 20 20 19 19 19 17 19 18
15 15 11 11 6 11 9 13 12 10 6 4 4 3 4 7 8 7 8 9 10 9 9 8 7 5 3 8 10 11 12 11 10 13 14 14 17 21 26 26 26 19 23 22 23 22 22 20 18
17 13 15 13 12 13 15 12 16 10 8 4 6 6 9 11 9 10 10 13 14 15 15 15 14 12 9 5 3 6 8 5 3 2 3 2 5 10 15 16 15 15 18 20 20 25 27 20 27
18 15 13 13 15 14 12 9 4 10 10 7 8 9 10 11 10 10 12 15 16 16 16 15 14 14 13 12 10 7 4 3 2 2 5 5 5 6 8 11 11 14 19 20 24 25 25 27 28
13 10 8 9 11 13 17 11 12 12 12 9 9 9 10 11 11 12 14 14 14 14 13 12 11 11 12 10 9 9 8 7 6 6 7 6 8 10 9 10 12 15 18 21 24 24 27 26 25
13 13 9 10 10 11 12 8 14 9 8 10 11 12 12 11 10 10 10 11 11 10 10 8 9 8 8 7 7 7 7 7 7 9 10 11 12 13 11 13 14 15 17 20 23 25 26 26 28
17 17 10 9 9 12 10 9 4 7 4 12 12 12 11 10 9 8 8 8 9 9 10 10 10 9 11 11 11 9 10 10 12 12 14 16 18 19 18 19 20 21 21 21 23 27 30 31 31
12 13 9 8 5 8 8 5 7 8 9 12 13 12 10 9 7 7 7 8 9 11 11 12 12 11 11 13 13 13 13 14 16 17 18 19 20 23 23 24 25 25 27 26 26 29 31 31 33
9 9 8 8 9 12 10 12 6 13 15 15 14 13 10 9 7 5 5 7 7 8 9 10 10 12 13 13 13 14 15 15 16 17 18 19 21 23 24 25 26 27 28 28 29 32 33 34 36
9 12 10 8 8 6 11 5 11 11 17 17 15 12 10 7 5 4 4 4 5 6 8 10 11 12 13 13 14 16 16 17 18 19 20 20 21 22 23 25 26 28 28 27 28 31 34 37 35
10 11 13 8 12 8 10 8 2 1 10 13 13 10 8 5 4 3 3 5 7 9 11 11 11 13 13 13 14 14 14 15 17 19 20 22 23 24 24 25 26 27 27 27 29 31 33 35 36

GFSSGP_925_spd_105.txt.gz
Wind_Speed
8 10 12 13 8 8 19 19 16 3 7 3 4 7 9 11 10 5 6 7 8 21 24 22 22 21 20 20 20 21 21 20 20 20 19 18 17 18 18 16 15 13 12 11 10 8 9 10 11
11 10 13 9 10 15 15 21 12 11 6 3 6 4 10 10 13 5 7 5 14 20 22 21 24 21 20 19 20 22 22 21 21 20 19 19 18 18 18 16 14 12 11 10 9 9 10 10 10
8 12 9 8 16 18 18 17 19 9 4 5 4 2 4 6 12 7 7 7 16 18 21 20 24 22 20 19 20 22 22 21 20 20 19 19 19 19 18 15 13 11 9 8 8 10 10 10 10
9 10 8 13 21 23 25 22 2 3 6 5 2 7 5 9 4 5 5 10 16 18 20 19 24 21 20 20 20 24 23 21 20 19 17 17 18 18 18 16 13 10 8 9 10 10 10 10 8
16 11 13 17 23 24 21 9 6 8 12 6 5 10 4 11 4 3 8 12 16 18 19 17 24 21 19 19 21 25 25 22 21 19 17 17 17 17 16 15 13 10 9 10 10 10 11 9 8
9 12 15 17 23 21 22 8 14 13 13 11 9 11 10 9 3 4 8 12 15 17 16 18 23 21 18 18 21 24 24 21 21 20 18 17 17 16 15 14 13 10 10 10 10 10 10 9 7
17 14 18 21 19 17 14 7 10 16 16 16 14 13 8 8 7 3 8 12 15 17 17 19 21 21 19 19 21 22 22 21 20 20 18 16 17 17 15 13 12 11 12 11 11 10 10 10 9
13 14 22 20 18 18 9 5 8 13 14 6 3 7 13 12 3 6 8 13 16 17 18 19 20 20 18 17 19 20 20 20 19 19 18 17 17 17 16 15 13 11 11 12 12 12 11 11 11
11 14 17 21 20 14 6 4 10 6 9 7 11 16 8 4 5 6 9 12 16 18 18 19 18 19 19 17 16 19 18 19 19 18 17 17 14 16 16 15 14 12 12 11 12 12 13 13 14
16 14 22 18 10 7 10 7 8 8 13 14 14 15 15 8 9 10 11 14 16 18 18 20 18 18 18 18 16 17 16 16 16 15 15 15 15 15 15 15 16 15 14 14 14 14 15 15 12
19 21 15 15 6 10 12 10 7 13 15 14 12 13 15 17 13 12 17 5 17 18 21 20 18 16 17 17 16 17 16 15 15 15 15 17 15 15 16 15 14 14 15 13 15 15 16 15 14
21 19 22 13 7 10 14 14 15 11 15 14 10 12 15 16 12 13 15 23 15 6 17 13 17 16 15 15 15 15 16 15 14 15 15 15 15 15 15 16 14 15 15 14 16 14 16 15 16
23 21 16 16 16 14 14 13 15 14 13 12 13 14 17 16 13 14 14 12 1 20 20 12 12 13 13 10 10 12 12 14 14 14 16 16 15 14 15 15 15 15 14 16 14 16 14 15 16
14 20 21 15 16 17 15 17 17 13 16 14 12 14 15 14 19 17 16 13 15 9 12 10 10 12 13 12 8 8 8 9 12 14 15 17 17 14 15 15 14 15 16 15 15 16 16 17 17
18 13 17 20 17 15 13 18 17 13 9 10 11 13 14 18 21 17 21 21 16 14 16 15 16 13 16 15 10 10 12 12 13 14 16 16 20 18 17 15 14 15 16 16 13 12 13 16 17
18 18 18 20 22 18 11 16 20 14 10 10 11 12 13 13 16 16 17 19 21 13 17 16 15 17 14 12 9 8 12 15 15 17 17 18 16 19 17 16 16 16 15 15 16 18 20 21 22
16 18 23 21 21 12 15 17 15 8 8 11 11 11 14 13 12 19 22 21 20 21 17 19 14 16 17 13 9 7 7 9 14 19 19 18 19 21 21 18 15 13 14 18 19 20 21 21 22
18 17 19 21 17 18 15 20 6 9 12 12 12 12 12 14 17 16 17 18 19 17 6 10 11 10 18 17 15 9 3 3 12 20 22 20 25 22 21 21 20 16 15 22 25 23 22 23 21
19 17 16 15 7 10 19 17 16 12 11 12 11 11 11 13 12 17 16 12 14 5 14 10 8 8 10 15 17 11 10 5 8 17 20 24 17 19 23 23 26 26 21 24 27 27 21 23 19
20 15 14 10 11 9 14 19 11 16 8 11 4 7 12 13 9 6 8 9 6 6 8 8 6 5 5 9 6 8 12 16 11 17 15 18 19 22 26 30 26 24 19 22 27 22 20 19 22
20 18 16 16 14 19 15 17 15 13 11 7 9 9 10 18 13 8 9 8 8 8 6 7 7 7 5 2 4 1 7 10 12 14 16 17 16 21 24 24 24 20 18 19 44 35 35 20 28
19 18 14 12 12 14 20 14 18 20 16 11 7 8 8 8 13 10 11 11 11 9 10 9 9 10 9 7 3 2 9 8 6 8 7 8 10 10 12 17 16 17 13 16 23 34 26 22 21
17 14 17 16 16 17 21 16 16 23 20 15 9 10 12 12 12 12 12 13 12 11 12 13 13 15 13 13 9 3 3 2 4 3 6 9 9 7 8 8 10 11 15 16 20 25 19 22 17
15 15 15 17 13 15 22 14 15 15 16 19 14 9 12 12 12 12 14 13 13 13 12 13 14 14 12 10 9 7 4 3 4 5 8 9 10 11 9 9 10 13 15 14 15 20 23 22 24
16 15 10 12 13 12 21 17 14 8 12 19 16 13 12 12 12 13 13 12 12 11 11 11 11 10 8 6 6 5 5 6 6 8 9 10 13 14 14 13 12 14 14 16 19 21 22 22 25
22 21 12 14 14 17 20 16 13 11 10 12 16 14 13 12 11 10 9 11 11 10 9 9 8 7 6 5 5 4 6 7 8 8 11 13 16 16 17 17 18 18 20 20 21 22 24 26 28
22 20 20 12 16 6 5 8 10 11 11 14 15 14 12 11 11 11 10 8 8 8 8 8 6 5 5 6 6 7 8 9 10 11 12 15 15 17 19 19 21 22 23 23 24 26 27 28 30
17 14 12 7 8 15 12 8 8 14 15 16 16 15 13 11 10 9 8 7 6 6 7 6 5 6 7 7 7 8 11 11 12 13 15 16 17 18 20 21 22 22 24 23 25 27 28 29 31
18 11 8 16 7 5 9 5 7 2 11 16 16 15 14 12 10 8 6 6 5 5 6 6 7 8 9 9 10 11 12 12 12 13 15 17 19 21 24 25 26 27 27 26 26 26 27 30 31
21 19 19 5 10 7 4 7 8 6 5 10 16 14 13 9 7 7 5 4 4 5 6 7 8 10 11 11 11 11 12 13 14 16 18 19 21 21 23 24 25 26 27 26 26 26 26 27 30

GFSSGP_925_spd_108.txt.gz
Wind_Speed
12 11 11 13 7 8 16 19 21 21 3 2 7 6 11 12 12 7 15 9 26 25 25 24 23 22 20 19 18 17 16 15 16 16 16 16 16 16 16 16 14 13 12 11 8 8 8 9 10
10 14 16 6 9 13 15 20 21 20 18 12 4 5 12 14 14 17 14 5 25 25 24 21 23 23 22 20 18 17 17 16 16 16 15 15 16 16 16 15 14 13 11 10 8 8 9 9 10
11 13 8 5 14 16 17 22 20 10 14 9 2 4 10 8 10 8 10 16 23 23 24 21 23 22 21 20 19 20 19 18 18 17 16 15 15 16 15 14 13 11 10 9 8 9 9 10 9
8 8 7 12 19 22 26 24 27 4 10 5 1 3 7 10 4 7 9 16 20 20 21 21 23 21 20 20 20 20 21 19 19 18 16 16 16 15 15 13 11 9 9 9 9 10 10 9 8
18 8 11 15 22 23 22 23 22 12 7 12 11 9 2 15 9 10 10 15 19 20 22 20 23 21 20 19 20 21 22 20 19 18 16 16 16 16 15 13 10 7 8 9 11 12 12 11 8
10 11 14 17 23 22 21 24 24 15 8 9 6 5 6 18 13 11 13 15 18 24 21 20 23 20 19 18 19 22 22 21 19 18 16 15 16 16 16 14 12 9 8 10 10 11 12 12 11
17 14 18 22 21 21 22 22 25 11 10 11 8 11 9 8 18 9 12 17 19 23 20 20 23 22 19 18 20 22 21 20 19 18 16 16 16 17 16 15 13 11 11 11 12 12 11 10 10
13 14 24 21 18 22 20 5 9 3 11 12 15 7 7 10 12 8 12 19 21 22 21 20 22 22 21 20 21 22 21 20 18 17 16 15 16 16 17 16 15 13 13 13 12 13 13 13 12
19 15 17 23 22 16 20 6 5 5 2 10 3 9 4 9 7 10 15 18 25 25 28 27 24 23 22 19 21 20 18 17 17 17 16 15 14 16 16 16 14 14 13 13 14 14 13 14 14
18 15 24 21 20 18 15 2 3 6 8 13 10 13 14 7 8 13 14 18 21 22 26 30 29 25 25 22 21 20 18 18 17 15 15 15 14 16 16 15 18 16 14 14 15 15 16 16 15
23 21 19 21 24 13 12 15 4 10 12 11 16 17 17 14 12 15 22 21 26 26 27 29 33 29 28 26 21 19 17 17 14 14 15 15 15 19 16 21 20 19 18 17 17 17 19 18 16
23 23 22 25 25 5 10 14 15 13 15 12 14 9 13 13 15 17 20 24 20 17 22 6 18 26 19 28 24 22 21 21 19 19 19 15 20 20 21 20 23 20 20 19 18 17 17 17 18
24 23 22 21 22 20 8 16 18 17 13 14 13 14 12 15 14 15 17 23 19 23 19 8 22 9 19 10 22 24 24 25 22 23 23 21 19 19 21 20 21 25 21 23 19 22 23 21 18
21 21 21 23 23 16 19 19 17 17 17 15 16 15 14 15 19 15 17 9 19 19 31 16 8 6 15 5 8 12 12 14 19 19 23 23 20 19 16 19 16 16 16 20 25 22 23 24 21
23 18 21 21 23 21 17 21 22 19 15 17 17 14 14 15 17 11 18 13 30 23 14 16 25 29 25 19 11 12 8 9 6 12 8 21 21 19 14 14 17 17 16 18 18 14 15 21 18
22 22 20 21 20 23 18 20 18 21 17 16 12 12 14 13 15 23 24 16 26 27 38 40 39 26 25 20 16 14 14 8 7 10 12 12 13 16 18 21 17 18 18 18 17 22 16 18 17
20 17 25 23 23 22 24 21 21 11 14 12 12 13 13 12 14 19 18 24 29 23 25 24 31 30 28 21 19 16 17 16 12 14 17 19 11 11 12 20 25 20 18 20 21 15 19 14 14
19 21 21 21 21 26 22 14 23 14 14 12 11 12 11 13 12 12 11 26 19 22 25 22 28 25 20 19 12 12 12 10 14 20 20 13 8 9 19 18 27 29 19 19 21 25 21 13 18
21 21 22 17 19 14 15 18 18 14 14 14 12 11 10 11 13 16 19 24 21 23 22 20 15 24 21 19 19 18 13 13 10 7 7 4 6 13 21 28 34 31 28 15 15 6 14 17 23
23 23 21 16 17 8 14 16 18 16 11 13 12 10 10 10 8 11 13 9 20 21 20 17 13 10 11 15 10 4 3 3 4 6 11 9 6 12 16 20 26 28 10 11 11 18 19 15 17
22 23 21 15 18 13 10 13 12 18 12 12 11 2 5 8 13 11 9 9 20 18 14 14 12 7 4 6 6 1 2 2 4 8 10 8 7 3 7 14 20 22 15 8 15 29 21 22 15
22 22 19 14 12 14 19 15 15 16 15 12 10 9 9 12 13 12 11 14 18 15 14 14 12 8 5 7 9 8 7 7 7 8 9 13 10 11 7 7 14 13 15 13 8 14 25 26 18
22 18 20 16 17 11 18 13 14 18 18 18 10 8 10 14 14 13 12 16 14 14 13 13 13 12 11 11 13 11 12 9 7 7 11 11 11 8 10 11 10 10 10 11 15 21 22 26 20
19 18 17 19 14 16 19 15 14 11 23 21 16 14 11 16 15 13 16 14 13 14 14 13 12 13 13 15 14 15 11 9 7 10 11 11 12 11 10 8 8 10 11 9 9 8 16 24 28
18 17 11 12 13 14 21 20 13 3 4 19 17 14 15 14 13 12 12 13 14 15 14 14 12 12 11 11 11 10 7 5 4 7 9 10 12 14 18 19 16 14 13 16 19 19 20 21 21
21 19 12 20 14 17 21 21 19 17 17 16 15 15 14 13 13 14 12 13 14 12 11 12 11 10 9 9 9 8 7 7 6 7 9 10 12 13 15 15 17 18 18 17 17 19 20 23 26
20 20 19 17 3 2 6 15 17 16 19 20 16 15 15 15 14 14 12 14 15 12 10 8 9 8 7 7 6 5 5 6 6 7 8 9 12 13 16 18 18 19 18 19 19 19 22 23 25
24 19 18 14 6 11 8 4 6 15 19 20 17 15 14 14 14 13 11 12 10 14 10 7 7 6 5 5 5 5 6 6 7 9 10 11 13 14 18 20 20 21 21 21 21 21 21 22 23
16 12 4 7 7 5 6 2 12 7 14 17 19 16 14 13 15 13 12 13 13 11 11 7 6 4 4 5 4 5 6 7 8 9 10 12 15 16 18 20 20 20 21 22 23 22 22 21 21
21 17 14 4 7 7 5 4 12 6 7 3 11 19 16 14 14 12 12 11 11 8 6 9 5 5 6 6 6 6 6 7 9 10 12 13 15 16 18 20 21 22 22 23 23 26 25 25 24

GFSSGP_925_spd_111.txt.gz
Wind_Speed
14 10 10 5 2 2 6 9 9 20 15 1 7 7 7 10 6 8 17 28 33 36 30 27 28 27 26 24 22 21 19 18 18 18 17 18 19 19 19 20 19 17 15 14 13 13 12 13 12
11 8 7 3 4 2 6 13 17 20 3 5 10 4 6 14 9 5 16 27 33 34 30 27 27 27 26 25 23 22 20 19 18 17 17 17 17 18 18 18 17 15 15 13 12 13 14 14 13
9 2 1 4 3 7 7 15 18 2 5 5 5 5 6 8 12 1 24 28 29 31 28 27 25 25 26 24 23 22 20 19 19 18 17 18 18 18 17 17 16 14 13 13 12 13 14 14 13
2 2 4 0 9 10 16 16 20 14 4 2 5 5 5 7 5 17 37 28 28 31 28 27 25 23 22 21 21 21 20 19 19 18 17 17 18 18 17 17 15 14 12 11 12 13 13 13 12
5 2 3 4 9 12 15 20 21 18 7 7 6 1 9 9 26 26 35 28 27 29 24 26 24 22 21 20 19 20 20 19 19 18 17 17 17 17 16 15 14 13 13 13 14 14 15 13 11
3 3 1 7 14 16 14 20 21 17 8 6 7 7 6 23 25 23 31 31 27 28 23 25 23 20 18 18 19 19 19 19 19 18 16 16 17 17 17 15 13 11 11 13 14 15 16 15 13
6 2 6 9 13 16 15 16 20 21 11 4 3 5 6 6 25 25 24 31 31 30 26 24 23 20 19 18 20 21 22 20 19 18 16 15 16 17 16 15 13 11 11 12 13 14 15 14 14
4 3 7 9 11 15 18 3 2 5 2 2 3 3 4 5 18 24 25 33 35 35 30 28 26 22 20 19 18 20 20 19 18 17 15 13 13 13 14 14 13 13 12 12 12 13 14 13 13
5 6 10 13 12 13 16 6 4 5 5 5 6 6 10 11 5 8 15 25 32 32 31 32 28 21 18 17 18 20 19 19 18 16 14 13 13 14 14 15 14 14 13 13 13 13 14 14 14
8 7 17 7 13 11 11 4 7 4 4 4 5 5 13 11 6 6 9 11 28 28 30 34 34 26 17 14 17 17 17 17 16 15 15 13 12 12 15 15 14 13 13 13 14 14 14 15 17
8 18 8 12 20 18 13 6 6 2 3 3 4 6 6 5 7 8 14 11 24 28 23 24 22 19 16 16 17 17 17 17 16 15 15 15 13 13 13 13 14 16 15 15 16 16 18 19 19
15 17 15 16 17 14 10 6 5 5 5 4 7 5 6 8 8 9 13 11 24 34 35 29 21 16 9 13 18 18 15 15 16 18 16 13 16 17 19 19 18 18 18 19 19 20 21 21 22
17 15 17 17 17 13 10 8 5 8 9 5 5 7 6 7 5 11 21 24 33 40 38 38 32 25 13 10 9 19 19 20 21 21 19 16 15 18 15 21 19 21 22 21 22 22 22 22 22
10 16 18 13 16 11 9 8 5 8 8 7 7 8 8 7 8 9 7 26 32 39 36 28 24 27 39 28 25 23 25 24 23 21 22 19 16 17 15 17 17 13 17 22 19 24 25 26 26
14 17 15 20 9 13 10 11 12 8 9 10 11 10 10 9 13 12 13 30 39 37 37 32 33 36 36 26 20 22 20 24 26 22 25 23 19 15 14 9 17 17 17 15 16 13 22 17 22
9 13 15 9 10 13 8 18 11 11 13 11 15 10 10 10 10 14 13 34 33 41 37 39 35 37 33 28 24 23 22 19 17 14 11 18 21 16 10 12 14 14 15 17 19 18 16 12 17
7 10 12 15 9 6 16 18 11 12 9 11 10 9 9 9 9 14 16 32 34 32 32 34 34 33 30 29 28 26 18 20 19 16 20 16 11 15 12 21 22 24 21 12 8 30 19 23 24
10 13 13 10 11 18 17 16 16 16 11 16 10 9 10 9 11 20 16 32 34 35 34 36 32 29 28 25 21 17 17 17 15 16 15 14 9 11 18 24 30 21 18 11 10 9 16 23 24
13 13 13 11 17 12 16 16 17 12 7 9 9 9 9 10 10 15 26 35 33 28 32 35 34 31 29 28 28 24 24 19 15 13 10 8 8 10 15 19 24 21 9 9 5 5 9 10 26
19 18 17 12 13 12 11 8 11 9 7 9 11 10 8 6 8 8 18 21 24 24 27 32 27 29 27 26 22 19 18 15 12 9 6 6 8 12 13 16 14 17 15 13 18 12 15 11 12
21 18 15 13 15 7 3 5 5 1 3 6 9 8 5 5 11 18 18 23 32 30 29 27 21 21 17 14 17 13 14 15 13 10 8 6 4 3 9 10 10 11 16 18 8 13 15 15 6
19 18 18 16 12 3 6 5 4 3 5 5 4 9 7 10 15 17 16 21 25 27 27 23 17 14 13 11 11 13 12 16 12 10 10 11 9 10 7 7 5 3 8 7 6 10 11 12 20
15 14 16 15 7 3 9 3 6 9 9 9 4 6 9 14 17 18 17 23 25 26 24 20 17 15 13 12 16 20 21 18 13 12 11 12 15 16 16 15 14 12 9 7 3 8 14 22 28
17 13 11 10 4 5 7 5 5 5 12 14 7 8 16 18 18 18 22 25 27 24 23 21 21 18 16 15 14 14 15 14 14 12 11 11 9 14 14 11 9 6 5 5 6 7 11 20 27
16 8 6 4 6 5 7 8 8 6 1 13 11 18 15 17 16 14 13 13 22 23 21 20 18 17 16 15 14 13 14 15 16 13 11 11 12 13 14 13 13 13 12 12 13 13 14 15 18
17 12 5 8 5 7 11 12 12 9 6 4 22 19 17 13 12 12 11 16 21 23 22 20 17 15 13 13 13 12 11 11 11 11 11 11 10 10 11 13 15 16 15 16 15 16 19 23 24
11 11 9 5 4 3 3 5 7 16 15 20 15 17 16 11 7 10 10 19 24 24 22 19 16 13 12 12 12 12 11 10 10 9 9 8 9 10 13 14 14 12 11 11 12 14 16 19 21
10 8 9 8 7 4 4 2 1 10 4 18 20 17 15 15 11 12 10 17 23 21 16 14 12 10 10 10 8 9 8 7 7 7 8 9 10 12 13 13 13 14 15 17 18 19 20 22 23
5 10 5 5 6 5 3 4 7 2 7 9 6 15 18 17 13 12 9 21 23 20 15 14 11 10 10 9 7 6 5 5 6 7 9 11 12 11 13 17 19 20 19 19 20 20 20 20 23
8 11 6 5 3 2 5 3 7 8 6 4 11 11 8 15 14 12 10 15 19 20 19 15 13 13 12 10 7 5 5 6 7 8 10 11 9 13 18 19 21 20 19 21 23 23 23 24 24

GFSSGP_925_spd_114.txt.gz
Wind_Speed
10 9 4 2 3 4 4 8 4 12 8 5 3 6 10 2 4 4 3 27 31 37 33 31 28 27 27 26 25 24 22 21 19 18 18 18 18 19 20 20 18 16 14 14 14 14 14 14 15
8 3 2 2 4 1 6 5 15 7 11 12 3 3 4 3 5 8 13 19 35 38 35 32 29 26 25 24 24 23 22 20 19 18 18 18 18 18 19 17 16 15 14 12 12 13 14 14 14
3 2 3 4 4 6 7 6 7 11 11 6 4 5 4 7 3 15 14 32 40 37 36 34 29 26 24 23 23 22 21 20 18 17 18 18 18 18 17 16 14 12 11 11 12 13 13 13 13
1 4 4 3 8 9 10 12 0 8 13 9 5 6 4 13 9 14 31 37 38 35 34 32 30 26 23 23 22 21 20 20 19 18 17 17 17 17 16 15 14 12 11 10 10 12 13 12 12
1 3 1 3 8 7 10 15 9 13 8 14 7 4 5 5 14 27 34 35 35 33 31 30 29 25 22 21 21 21 19 19 18 17 16 16 17 17 16 14 12 10 9 9 10 11 12 11 11
2 3 2 6 7 7 8 12 8 11 15 17 3 6 5 19 29 31 32 35 34 33 30 29 27 25 22 19 18 18 17 17 17 16 15 15 15 15 14 13 11 9 8 8 9 10 11 11 10
5 4 6 5 5 7 11 3 7 17 15 10 7 7 1 10 29 35 34 32 30 31 31 27 24 21 19 18 17 17 17 17 17 15 15 15 15 14 13 11 9 8 8 8 9 10 10 10 9
5 4 4 6 7 9 8 3 7 7 4 3 5 5 6 7 31 29 34 32 31 32 31 29 25 22 18 17 16 17 17 16 16 15 13 12 12 13 13 12 11 9 8 9 9 9 10 10 9
3 2 5 7 8 8 3 6 8 8 1 3 4 7 9 24 28 27 25 23 26 26 31 31 28 25 21 18 17 17 17 15 14 13 12 12 12 12 13 12 11 10 9 9 10 10 10 11 11
6 6 9 7 8 8 2 4 14 6 4 3 4 6 9 16 18 19 21 22 22 21 24 30 28 25 22 22 20 20 18 16 15 15 14 12 11 11 12 12 11 10 9 9 11 11 12 13 14
6 10 7 4 12 11 11 4 4 5 5 3 3 4 1 3 4 9 14 24 25 27 24 22 21 19 20 21 21 20 19 17 16 16 16 15 13 12 10 11 11 11 10 11 12 13 15 16 16
5 5 8 6 9 6 4 3 7 5 7 7 8 4 6 4 4 6 15 29 33 34 31 29 22 18 13 14 20 23 22 23 23 21 19 18 17 15 13 11 10 11 11 14 15 15 16 17 18
7 11 9 9 13 17 5 13 8 10 10 7 9 6 5 4 5 9 24 27 34 41 38 34 30 25 16 13 22 24 26 27 25 22 20 18 16 17 15 12 15 15 13 15 17 17 17 18 20
6 19 18 12 12 14 12 14 9 9 10 8 8 8 7 5 5 16 22 25 28 36 44 43 30 20 21 29 23 26 24 23 23 17 21 20 16 16 16 13 16 18 15 14 17 16 18 20 19
15 12 12 11 9 9 6 15 18 9 9 11 11 10 9 8 8 13 26 32 41 40 46 37 31 36 33 35 35 27 24 23 22 21 20 17 17 15 15 12 14 15 11 11 10 9 2 4 3
6 11 16 15 9 8 10 27 7 9 9 12 12 9 8 9 10 12 30 35 35 40 41 43 38 40 39 35 28 19 19 25 26 24 19 20 21 18 16 16 13 12 12 9 8 9 7 8 6
4 9 6 6 8 7 13 20 8 11 9 12 10 11 9 9 9 10 32 38 41 46 42 46 40 42 42 30 23 20 18 24 28 21 13 16 24 22 18 19 18 15 8 12 13 11 9 4 5
10 5 3 7 5 9 13 10 8 11 9 11 11 11 9 9 11 18 29 37 43 44 40 43 40 36 37 32 24 25 16 14 14 12 9 12 12 12 14 17 17 14 10 8 8 9 6 7 7
8 7 6 6 11 7 9 13 12 17 8 12 10 12 11 11 12 20 31 35 30 25 29 33 31 31 34 27 27 20 18 15 12 8 5 6 5 5 8 13 13 10 10 12 9 6 9 11 14
11 11 8 7 9 6 13 13 12 14 11 10 10 13 11 7 3 9 21 23 26 29 30 28 28 30 28 25 26 17 15 12 9 4 4 4 3 5 7 8 8 10 13 11 11 12 12 11 11
16 15 9 8 15 5 6 8 5 7 7 7 5 5 2 7 12 14 17 22 28 29 31 29 28 28 25 20 16 12 14 12 9 10 8 4 3 3 5 6 6 8 13 18 18 15 16 16 12
17 10 15 15 10 6 6 7 5 5 6 5 6 8 10 16 14 15 15 20 21 21 28 25 24 20 14 17 21 19 15 18 16 17 15 12 9 11 9 4 1 4 8 12 14 13 15 15 16
15 15 16 18 6 4 4 3 7 3 5 4 6 11 7 17 18 16 16 23 25 28 29 27 25 21 18 19 18 19 22 21 18 20 23 20 17 15 13 11 9 8 5 1 4 8 12 14 20
14 12 11 6 6 10 11 7 5 2 5 3 8 15 15 12 16 16 20 23 24 29 27 27 29 26 25 24 22 23 24 20 20 17 18 16 13 10 8 7 6 4 3 3 5 8 9 12 15
14 15 6 4 6 8 8 5 7 5 5 5 17 16 15 13 13 16 15 15 20 26 27 27 28 26 24 24 21 19 19 17 16 12 11 13 13 11 9 6 6 7 8 9 11 13 15 16 16
20 14 5 7 4 4 4 5 5 7 6 1 18 17 21 19 13 13 12 17 20 24 25 24 24 24 21 22 21 18 14 13 11 10 9 9 9 8 7 8 8 8 9 10 11 12 13 14 15
20 17 11 6 3 4 1 4 4 3 6 15 20 19 18 14 16 17 15 19 22 25 24 23 20 20 19 19 16 15 13 11 11 9 7 8 7 8 8 9 9 8 9 10 13 15 17 19 21
23 7 7 1 7 4 1 3 4 6 7 10 18 18 14 16 19 18 16 23 24 27 23 19 16 16 16 14 12 12 11 9 8 7 7 6 5 5 8 10 11 12 12 11 12 16 17 19 22
4 19 2 7 5 6 5 4 3 7 7 3 7 11 19 16 16 16 15 22 25 23 23 20 18 16 14 11 9 9 10 8 8 7 5 5 4 6 9 12 14 14 14 14 16 19 20 22 23
6 3 8 7 3 3 5 3 6 7 14 5 5 6 7 15 17 16 17 23 21 23 26 26 23 20 16 13 8 7 6 4 4 4 4 4 5 6 10 12 14 16 16 17 19 21 21 23 26

GFSSGP_925_spd_117.txt.gz
Wind_Speed
5 7 4 2 3 4 4 7 3 3 4 2 5 4 6 4 4 4 1 28 18 36 36 33 31 28 25 24 23 22 21 20 20 21 21 22 22 23 23 22 19 16 14 14 12 11 12 13 13
2 1 2 2 4 2 6 5 9 6 5 10 6 3 3 4 2 3 12 25 22 39 36 36 32 29 26 24 24 22 21 20 19 19 20 20 21 22 21 19 16 13 13 12 12 11 11 12 12
1 2 3 4 4 7 6 4 4 7 4 4 4 2 3 4 1 8 3 25 32 37 35 34 34 31 27 25 23 22 21 20 19 18 19 19 19 20 19 16 14 12 10 9 10 11 12 12 11
1 3 3 4 8 8 7 3 4 11 10 4 3 5 5 7 7 9 15 25 36 36 34 33 30 29 27 25 23 22 21 20 18 17 18 18 18 18 17 15 12 10 8 8 8 9 11 10 10
3 3 2 3 7 7 2 3 1 7 6 10 3 3 3 4 9 16 26 29 38 36 34 31 28 26 25 24 22 20 20 18 17 16 16 16 16 15 15 13 12 9 8 7 8 9 9 9 8
2 3 2 7 5 6 8 6 3 4 8 16 2 6 6 5 17 23 28 34 36 35 32 31 27 24 23 23 22 20 19 18 17 16 16 16 15 13 12 11 9 8 6 6 7 8 8 8 6
5 3 5 4 6 5 10 2 3 5 7 13 6 9 3 4 18 28 29 34 35 34 32 30 27 24 22 21 20 19 18 18 16 15 14 14 14 13 12 10 7 5 4 5 6 7 7 7 6
5 4 3 5 3 7 5 2 3 1 14 7 6 6 6 5 22 21 23 26 27 29 30 29 26 25 23 21 19 18 17 17 16 14 13 12 12 12 11 10 8 6 5 5 6 7 8 8 7
5 1 5 6 8 8 3 4 5 3 6 5 6 4 6 28 25 22 17 19 22 24 28 30 29 26 22 20 19 18 16 16 15 14 12 12 12 12 11 10 9 7 6 6 7 7 7 8 8
5 5 10 7 6 6 1 3 5 7 9 6 6 8 16 25 27 21 16 15 18 18 21 25 23 24 22 18 18 18 18 18 17 16 15 14 13 12 11 11 10 9 8 8 8 8 8 10 10
7 7 6 4 7 8 3 6 4 5 7 4 3 3 7 6 13 16 15 17 20 22 20 24 26 24 21 18 19 20 20 21 20 19 18 16 14 13 12 12 12 12 10 10 9 9 10 10 11
4 7 7 6 6 3 4 4 5 5 11 6 5 6 4 12 8 9 18 23 25 30 31 29 27 26 21 18 17 19 21 22 22 22 20 18 17 15 14 12 13 14 14 12 11 11 11 12 13
4 4 4 7 7 8 9 9 9 12 12 11 7 5 3 2 10 14 19 22 25 27 32 33 31 28 25 23 23 25 24 26 24 21 21 19 18 17 15 14 11 12 12 12 12 12 12 13 13
5 14 18 7 9 6 8 15 7 7 10 11 9 8 8 8 9 16 16 22 25 29 36 35 36 34 29 31 28 30 26 28 23 22 23 21 18 16 14 15 14 14 14 15 14 13 13 12 10
10 9 9 8 9 8 6 20 12 11 10 11 10 10 8 10 15 16 27 28 34 38 40 41 38 36 33 33 29 28 27 21 22 24 20 17 16 18 17 16 11 13 15 14 13 13 13 10 7
3 8 14 6 9 8 12 19 7 11 11 12 11 9 8 8 12 19 28 31 30 34 40 40 39 39 34 34 29 24 19 18 19 17 15 16 20 18 14 12 9 7 12 13 10 11 11 9 9
5 4 5 4 11 7 12 3 11 11 11 12 10 10 9 9 6 18 27 33 39 42 44 44 42 34 33 28 21 19 18 16 16 16 17 16 20 19 14 11 12 12 12 10 11 12 11 13 14
8 5 5 6 6 11 13 6 9 8 8 11 10 9 9 10 13 18 27 31 35 36 38 32 32 24 28 25 15 16 13 12 15 16 18 19 16 18 15 15 13 11 10 11 11 11 12 13 16
5 12 7 5 7 7 7 6 10 12 6 9 9 9 10 10 6 17 24 27 25 25 32 32 31 26 24 21 19 18 16 14 8 11 12 8 10 12 14 11 8 10 9 10 9 8 9 11 11
15 8 6 4 5 5 7 11 10 10 7 8 12 10 11 8 7 10 17 22 27 29 31 30 28 24 22 22 25 13 10 7 10 9 11 10 9 7 6 6 5 6 7 7 9 8 7 9 10
21 18 5 5 0 3 3 7 7 9 8 7 8 10 5 8 10 12 14 21 22 24 31 29 23 21 23 25 19 12 12 17 15 14 12 8 5 4 4 4 5 5 5 6 8 10 11 12 9
20 11 9 6 2 4 6 5 6 8 9 7 9 8 8 12 10 12 15 17 21 21 21 22 28 23 24 22 20 20 11 13 11 16 16 12 8 6 4 2 3 2 1 3 7 10 11 11 11
12 13 12 7 4 1 7 1 7 4 4 4 6 7 8 8 14 15 12 17 18 21 21 21 21 21 21 21 19 17 21 25 24 23 20 17 13 10 10 9 8 6 3 2 3 3 5 8 12
10 8 4 3 4 7 7 8 5 3 7 4 6 8 10 12 11 12 17 22 25 26 26 22 21 18 15 16 21 26 28 28 25 21 20 16 13 11 9 7 5 3 2 4 7 8 8 8 10
9 10 2 3 4 11 9 6 7 6 6 7 13 11 13 14 15 14 15 14 19 21 28 26 27 25 23 24 26 25 26 24 21 17 16 12 9 7 6 5 5 5 6 7 9 10 11 11 13
11 7 5 6 5 4 8 6 5 7 5 8 14 15 14 15 16 14 15 19 23 24 25 29 26 27 24 24 23 21 20 19 18 16 13 10 8 6 5 5 5 6 7 9 11 13 14 15 16
9 12 10 4 2 3 4 3 4 6 7 13 15 15 13 13 14 16 15 22 20 31 24 27 26 25 23 22 21 18 17 15 15 14 12 9 6 4 2 4 6 8 10 10 11 11 14 15 17
10 8 8 5 7 4 3 5 6 3 6 7 13 12 9 13 14 14 13 18 23 31 29 24 24 22 19 17 16 16 14 12 11 10 9 6 4 3 2 5 7 7 9 10 12 15 17 20 22
9 12 6 7 5 7 4 5 2 5 6 11 7 8 13 13 14 13 12 18 18 31 32 25 22 18 16 15 14 12 11 8 6 5 3 2 1 0 3 4 9 10 13 14 15 17 20 21 23
6 10 13 5 4 1 4 3 3 5 3 11 12 9 10 12 12 10 12 19 23 27 34 26 24 21 16 13 12 10 8 6 5 2 1 1 2 3 5 6 10 13 15 16 17 18 19 21 23

GFSSGP_925_spd_123.txt.gz
Wind_Speed
3 4 2 0 4 2 7 7 2 4 4 1 4 4 6 7 4 0 2 15 22 27 27 29 30 28 27 28 27 27 26 25 25 25 23 21 22 22 22 21 19 16 14 13 12 12 12 13 14
2 1 2 2 5 10 11 7 10 11 4 6 6 1 5 4 2 5 12 12 24 29 27 27 32 30 29 27 25 25 24 24 24 23 22 20 21 21 22 20 18 15 14 13 13 13 13 14 14
2 2 2 3 5 16 12 7 9 8 4 4 4 2 4 1 2 4 7 19 24 25 26 27 32 30 29 28 26 24 23 24 24 23 21 20 21 22 20 18 15 13 13 12 12 12 13 14 14
1 2 3 5 13 7 13 10 2 1 1 1 3 9 4 3 2 7 20 22 25 25 26 31 32 30 29 28 26 24 23 22 22 22 22 22 22 22 19 17 14 13 12 12 12 12 13 13 15
4 0 4 5 13 5 7 7 5 4 2 2 7 5 6 5 10 16 22 23 26 26 25 29 31 30 30 29 27 26 25 23 22 22 21 22 22 21 19 16 14 12 11 12 12 12 12 13 14
3 1 4 14 16 8 8 10 10 12 8 6 3 5 5 4 10 15 21 19 22 26 25 24 30 28 27 26 26 25 24 24 24 23 22 22 21 19 17 15 13 12 11 11 12 13 13 13 13
5 5 10 8 7 10 13 8 9 10 10 6 3 5 3 4 9 16 21 20 22 23 23 21 21 25 25 25 25 24 24 23 23 22 21 21 20 18 16 15 13 12 11 11 12 13 13 13 13
4 4 6 9 11 14 5 4 7 12 13 2 4 6 4 4 12 15 20 21 23 23 22 23 22 21 20 22 24 24 23 22 22 21 21 21 20 18 16 14 12 11 10 10 11 12 12 11 11
4 7 12 14 13 11 3 6 4 1 5 3 2 5 6 16 18 17 20 21 21 21 21 21 23 22 21 20 22 22 22 22 21 21 20 20 17 18 18 16 13 11 9 9 10 11 11 11 11
10 9 15 6 14 8 3 7 5 3 4 3 2 5 7 15 20 21 21 21 21 23 23 22 23 23 23 21 21 20 20 20 21 21 22 19 17 17 16 15 14 12 10 10 10 10 10 10 8
10 17 11 9 14 13 12 10 4 5 10 8 0 5 6 10 14 17 21 25 27 23 20 21 21 22 24 23 23 22 22 20 20 21 21 18 16 15 14 13 13 11 11 8 9 8 9 10 9
11 11 13 9 13 8 12 8 6 13 15 4 3 4 2 10 14 17 19 20 21 23 22 23 23 23 24 21 22 20 21 22 21 20 22 18 17 16 15 14 14 13 12 11 10 9 9 9 10
18 13 13 19 14 13 8 11 9 9 13 10 13 13 10 11 15 16 18 20 22 23 24 25 25 28 27 22 20 21 21 21 18 18 19 17 16 15 15 13 13 13 11 11 10 9 8 9 11
5 19 19 14 17 15 17 20 14 9 17 16 11 12 10 8 15 15 16 19 22 22 23 24 25 25 25 22 23 18 17 17 19 19 19 19 16 14 14 13 13 12 12 12 12 10 6 10 11
8 11 12 18 19 15 6 22 21 15 20 19 15 15 12 11 10 19 24 23 24 25 22 24 25 27 23 22 20 19 15 15 16 17 17 19 18 16 14 13 14 12 10 11 11 11 10 13 12
12 18 20 14 12 10 17 22 3 22 23 22 18 16 13 14 15 19 17 21 20 20 25 25 24 25 24 25 18 15 14 14 15 14 14 17 18 18 17 15 11 10 8 10 10 12 12 13 12
13 15 19 15 19 13 20 10 15 15 14 18 16 16 14 12 12 15 18 19 21 24 22 24 23 22 22 19 15 14 14 13 12 11 12 12 12 14 14 12 11 6 4 11 13 12 12 11 12
19 23 14 17 13 23 22 17 3 8 14 13 14 13 12 11 14 18 20 19 18 18 17 18 20 21 20 16 13 12 11 11 10 12 10 8 5 5 9 12 10 4 4 14 13 11 10 10 11
10 17 22 15 11 17 27 22 17 13 10 12 13 12 13 11 12 13 16 18 18 18 18 19 21 20 20 17 16 15 12 13 13 12 12 12 12 17 7 17 7 8 7 18 18 12 10 8 7
17 17 17 12 18 14 13 22 21 21 20 16 16 15 13 11 10 10 16 20 22 23 21 20 20 19 20 19 16 12 15 11 14 16 16 8 6 9 10 9 5 10 12 13 12 8 5 5 3
26 20 13 6 11 18 5 16 15 16 16 15 17 15 14 14 14 11 13 22 22 23 23 20 18 19 17 17 14 12 13 15 15 14 14 14 16 17 17 18 17 19 18 9 6 4 3 4 3
26 25 15 13 13 10 12 5 13 20 18 17 17 15 15 14 12 11 13 15 20 19 14 12 14 16 17 18 16 16 16 17 10 14 16 17 17 19 21 23 17 13 7 5 3 3 2 3 5
23 17 22 16 9 5 9 6 9 9 17 17 18 15 14 14 13 12 13 13 9 11 13 14 13 13 13 14 14 16 12 10 17 16 17 16 16 18 19 17 14 9 7 6 5 2 4 4 3
13 17 20 17 10 11 18 12 7 10 17 14 10 10 9 10 11 10 12 16 16 17 21 22 20 15 9 9 11 10 11 13 17 16 17 15 15 16 16 15 12 9 6 5 5 6 6 6 6
22 22 9 11 10 12 19 12 13 8 9 12 13 12 10 10 11 13 14 12 18 22 26 25 23 24 17 13 6 13 17 17 17 15 13 13 11 11 11 10 8 7 6 6 5 6 6 7 8
30 26 10 14 16 18 5 13 8 23 7 1 12 13 11 11 12 13 14 15 19 23 26 26 28 31 29 25 12 12 20 22 21 20 17 15 12 11 11 10 8 7 6 6 9 8 8 8 10
30 23 14 6 10 10 9 4 3 10 8 11 14 14 12 12 13 14 13 16 22 22 23 23 28 27 20 23 8 8 14 20 17 18 17 14 13 11 9 9 9 9 9 9 10 8 9 10 11
26 28 15 6 11 10 12 16 5 12 13 13 15 14 13 14 14 13 12 16 15 16 18 16 23 27 24 27 19 15 17 16 15 16 15 13 12 9 8 8 8 8 8 10 11 10 10 12 12
9 18 15 10 3 6 7 8 3 7 16 18 16 15 15 16 15 13 14 19 18 20 21 25 27 34 27 26 17 15 13 14 12 12 11 9 8 7 6 6 6 7 8 9 10 10 11 12 12
21 27 26 14 10 2 3 4 2 6 13 16 16 16 15 16 17 18 18 21 21 21 23 23 22 23 23 24 21 16 13 10 10 10 7 5 4 4 5 5 7 9 10 10 11 11 11 12 14